Regional Weather Roundup
Issued by NWS

Home | Current Version | Previous Version | Text Only | Print | Product List | Glossary Off
Versions: 1 2 3 4 5 6 7 8 9 10 11 12 13 14 15 16 17 18 19 20 21 22 23 24 25 26 27

000
ASUS45 KPSR 281910
RWRAZ

ARIZONA HOURLY REGIONAL WEATHER ROUNDUP
NATIONAL WEATHER SERVICE PHOENIX AZ
1200 PM MST WED SEP 28 2016

NOTE: FAIR INDICATES FEW OR NO CLOUDS BELOW 12,000 FEET WITH NO
SIGNIFICANT WEATHER AND/OR OBSTRUCTIONS TO VISIBILITY.

AZZ001>003-036-282000-
NORTHWEST ARIZONA

CITY           SKY/WX    TMP DP  RH WIND       PRES   REMARKS
BULLHEAD CITY  MOSUNNY   86  54  32 NW5       29.96F
KINGMAN        MOSUNNY   81  48  31 MISG      30.10F
$$

AZZ004>008-015-016-018-282000-
NORTH CENTRAL ARIZONA

CITY           SKY/WX    TMP DP  RH WIND       PRES   REMARKS
GRAND CANYON   PTSUNNY   66  47  50 E9G18     30.31F
PRESCOTT       MOSUNNY   70  52  52 S15       30.21F
FLAGSTAFF      LGT RAIN  56  49  77 CALM      30.34F
PAYSON         MOSUNNY   73  50  43 S9        30.26S
PAGE           CLOUDY    75  42  30 NW5       30.19F
$$

AZZ009>014-017-282000-
NORTHEAST ARIZONA

CITY           SKY/WX    TMP DP  RH WIND       PRES   REMARKS
WINSLOW        PTSUNNY   74  51  44 E9G16     30.24F
SAINT JOHNS    LGT RAIN  70  49  47 SW12      30.29S
WINDOW ROCK    PTSUNNY   74  43  32 VRB7      30.35F
SHOW LOW       CLOUDY    66  43  42 S15       30.33S
$$

AZZ023-282000-
GREATER PHOENIX AREA

CITY           SKY/WX    TMP DP  RH WIND       PRES   REMARKS
PHOENIX        PTSUNNY   90  56  31 SE9       29.95F
BUCKEYE        SUNNY     90  55  31 E13G18    29.96F
GLENDALE       PTSUNNY   90  55  31 E8        29.97F
LUKE AFB       MOSUNNY   90  55  30 SE15      29.95F
DEER VALLEY    PTSUNNY   89  53  29 SE10      29.97F
SCOTTSDALE     PTSUNNY   90  53  28 E8        29.99F
MESA-FALCON    PTSUNNY  N/A N/A N/A SE12G17   29.94F
MESA-GATEWAY   PTSUNNY   91  55  29 SE8       29.98
CHANDLER       PTSUNNY   91  55  29 E7        29.96F
$$

AZZ027-028-282000-
SOUTHWEST MARICOPA COUNTY AND PINAL COUNTY

CITY           SKY/WX    TMP DP  RH WIND       PRES   REMARKS
CASA GRANDE    MOSUNNY   90  55  31 E8        29.99F
GILA BEND      MOSUNNY   90  55  30 VRB5      29.92F
$$

AZZ503-504-507>509-282000-
SOUTHEAST ARIZONA

CITY           SKY/WX    TMP DP  RH WIND       PRES   REMARKS
TUCSON         MOSUNNY   88  55  32 SE16      30.05F
DAVIS-MONTHAN  PTSUNNY   85  55  34 SE14      30.04F
RYAN FIELD     SUNNY     88  57  35 E12G18    30.04F
NOGALES        CLOUDY    83  53  35 VRB6      30.12F
SIERRA VISTA   CLOUDY    74  56  51 E7        30.20F
DOUGLAS        CLOUDY    78  55  44 VRB7      30.16F
SAFFORD        CLOUDY    78  59  51 VRB3      30.12F
$$

AZZ020-021-025-026-031-282000-
SOUTHWEST ARIZONA

CITY           SKY/WX    TMP DP  RH WIND       PRES   REMARKS
YUMA           NOT AVBL
$$

CAZ031-033-041-043-047-048-061-282000-
SOUTHERN CALIFORNIA

CITY           SKY/WX    TMP DP  RH WIND       PRES   REMARKS
DOWNTOWN L.A.  SUNNY     89  54  30 CALM      29.91F
L.A. AIRPORT   MOSUNNY   83  56  39 SW10      29.93S
SAN DIEGO      MOSUNNY   87  51  28 NW9       29.91F
BURBANK        SUNNY     87  49  26 VRB3      29.93F
ONTARIO        MOSUNNY   88  46  23 SW6       29.94F
RIVERSIDE      MOSUNNY   89  47  23 CALM      29.93F
PALM SPRINGS   PTSUNNY   92  51  24 W5        29.94F
EL CENTRO NAS  MOSUNNY   93  48  21 SE7       29.90F
IMPERIAL       SUNNY     94  54  25 E6        29.88F
BLYTHE         SUNNY     91  51  25 CALM      29.92F
NEEDLES          N/A    N/A N/A N/A MISG      29.96F
$$

NVZ020-UTZ003-282000-
SOUTHERN NEVADA-UTAH

CITY           SKY/WX    TMP DP  RH WIND       PRES   REMARKS
LAS VEGAS      PTSUNNY   83  44  25 CALM      30.03F
SALT LAKE CITY MOSUNNY   78  44  29 W7        30.16F
$$

NMZ009-TXZ055-282000-
NEW MEXICO-WEST TEXAS

CITY           SKY/WX    TMP DP  RH WIND       PRES   REMARKS
ALBUQUERQUE    PTSUNNY   76  45  33 VRB5      30.29F
EL PASO        PTSUNNY   77  53  43 N3        30.20F
$$


........................KEY........................
SKY/WX - SKY CONDITION/WEATHER
TMP    - TEMPERATURE IN FAHRENHEIT
DP     - DEW POINT IN FAHRENHEIT
RH     - RELATIVE HUMIDITY IN PERCENT
WIND   - DIRECTION AND SPEED IN MILES PER HOUR (MPH)
VRB    - VARIABLE WIND DIRECTION
PRES   - MEAN SEA LEVEL PRESSURE IN INCHES OF MERCURY
         F - FALLING PRESSURE   R - RISING PRESSURE
         S - STEADY PRESSURE
VSB    - VISIBILITY IN MILES
HX     - HEAT INDEX IN FAHRENHEIT
WCI    - WIND CHILL INDEX IN FAHRENHEIT
TC     - TEMPERATURE IN CELSIUS WHICH IS ALSO KNOWN AS
         TEMPERATURE IN CENTIGRADE
AFB    - AIR FORCE BASE
         LUKE AFB IS LUKE AIR FORCE BASE
         DAVIS-MONTHAN IS DAVIS-MONTHAN AIR FORCE BASE
NAS    - NAVAL AIR STATION
         EL CENTRO NAS IS EL CENTRO NAVAL AIR STATION
N/A    - NOT AVAILABLE





USA.gov is the U.S. government's official web portal to all federal, state and local government web resources and services.